Time,TemperatureF,DewpointF,PressureIn,WindDirection,WindDirectionDegrees,WindSpeedMPH,WindSpeedGustMPH,Humidity,HourlyPrecipIn,Conditions,Clouds,dailyrainin,SoftwareType,DateUTC
2013-10-20 00:09:00,51.4,34.0,29.28,South,189,14.0,30.0,52,0.00,,,0.00,weatherlink.com 1.10,2013-10-20 08:09:00,
2013-10-20 00:24:00,51.7,35.0,29.28,WSW,247,7.0,11.0,53,0.00,,,0.00,weatherlink.com 1.10,2013-10-20 08:24:00,
2013-10-20 00:39:00,51.5,35.0,29.29,WSW,243,6.0,19.0,53,0.00,,,0.00,weatherlink.com 1.10,2013-10-20 08:39:00,
2013-10-20 00:54:00,51.4,35.0,29.29,West,280,8.0,16.0,53,0.00,,,0.00,weatherlink.com 1.10,2013-10-20 08:54:00,
2013-10-20 01:09:00,51.4,35.0,29.30,SW,222,13.0,20.0,53,0.00,,,0.00,weatherlink.com 1.10,2013-10-20 09:09:00,
2013-10-20 01:24:00,51.1,35.0,29.30,SSW,211,13.0,21.0,55,0.00,,,0.00,weatherlink.com 1.10,2013-10-20 09:24:00,
2013-10-20 01:39:00,50.7,35.0,29.30,SW,225,7.0,17.0,56,0.00,,,0.00,weatherlink.com 1.10,2013-10-20 09:39:00,
2013-10-20 01:54:00,50.9,35.0,29.31,SW,233,8.0,17.0,54,0.00,,,0.00,weatherlink.com 1.10,2013-10-20 09:54:00,
2013-10-20 02:09:00,50.8,34.0,29.31,SW,218,11.0,17.0,54,0.00,,,0.00,weatherlink.com 1.10,2013-10-20 10:09:00,
2013-10-20 02:24:00,50.5,35.0,29.32,SW,235,17.0,17.0,55,0.00,,,0.00,weatherlink.com 1.10,2013-10-20 10:24:00,
2013-10-20 02:39:00,50.6,34.0,29.32,SSW,199,10.0,23.0,53,0.00,,,0.00,weatherlink.com 1.10,2013-10-20 10:39:00,
2013-10-20 02:54:00,50.7,33.0,29.33,SW,235,8.0,18.0,51,0.00,,,0.00,weatherlink.com 1.10,2013-10-20 10:54:00,
2013-10-20 03:09:00,50.4,33.0,29.34,SW,225,7.0,19.0,51,0.00,,,0.00,weatherlink.com 1.10,2013-10-20 11:09:00,
2013-10-20 03:24:00,49.9,33.0,29.34,SSW,192,6.0,16.0,52,0.00,,,0.00,weatherlink.com 1.10,2013-10-20 11:24:00,
2013-10-20 03:39:00,50.1,32.0,29.35,SW,231,4.0,18.0,51,0.00,,,0.00,weatherlink.com 1.10,2013-10-20 11:39:00,
2013-10-20 03:54:00,50.2,32.0,29.35,SSW,204,7.0,18.0,50,0.00,,,0.00,weatherlink.com 1.10,2013-10-20 11:54:00,
2013-10-20 04:09:00,50.2,31.0,29.35,WNW,296,0.0,11.0,48,0.00,,,0.00,weatherlink.com 1.10,2013-10-20 12:09:00,
2013-10-20 04:24:00,50.0,31.0,29.36,SW,215,5.0,16.0,49,0.00,,,0.00,weatherlink.com 1.10,2013-10-20 12:24:00,
2013-10-20 04:39:00,50.1,31.0,29.36,SSW,203,6.0,17.0,48,0.00,,,0.00,weatherlink.com 1.10,2013-10-20 12:39:00,
2013-10-20 04:54:00,50.4,30.0,29.36,South,186,2.0,16.0,46,0.00,,,0.00,weatherlink.com 1.10,2013-10-20 12:54:00,
2013-10-20 05:09:00,50.3,31.0,29.36,SW,216,7.0,15.0,48,0.00,,,0.00,weatherlink.com 1.10,2013-10-20 13:09:00,
2013-10-20 05:24:00,50.3,31.0,29.37,SSW,210,9.0,15.0,47,0.00,,,0.00,weatherlink.com 1.10,2013-10-20 13:24:00,
2013-10-20 05:39:00,50.2,30.0,29.37,South,173,7.0,14.0,47,0.00,,,0.00,weatherlink.com 1.10,2013-10-20 13:39:00,
2013-10-20 05:54:00,50.3,30.0,29.37,SW,231,8.0,21.0,46,0.00,,,0.00,weatherlink.com 1.10,2013-10-20 13:54:00,
2013-10-20 06:09:00,50.3,30.0,29.38,SSW,212,11.0,23.0,45,0.00,,,0.00,weatherlink.com 1.10,2013-10-20 14:09:00,
2013-10-20 06:24:00,50.2,30.0,29.38,South,170,9.0,23.0,46,0.00,,,0.00,weatherlink.com 1.10,2013-10-20 14:24:00,
2013-10-20 06:39:00,50.1,29.0,29.38,SSW,204,8.0,20.0,45,0.00,,,0.00,weatherlink.com 1.10,2013-10-20 14:39:00,
2013-10-20 06:54:00,50.0,29.0,29.38,SSW,196,10.0,16.0,45,0.00,,,0.00,weatherlink.com 1.10,2013-10-20 14:54:00,
2013-10-20 07:09:00,49.8,29.0,29.39,SSW,207,9.0,27.0,45,0.00,,,0.00,weatherlink.com 1.10,2013-10-20 15:09:00,
2013-10-20 07:25:00,49.7,28.0,29.39,SSW,193,8.0,18.0,44,0.00,,,0.00,weatherlink.com 1.10,2013-10-20 15:25:00,
2013-10-20 07:40:00,49.6,29.0,29.40,South,173,12.0,24.0,45,0.00,,,0.00,weatherlink.com 1.10,2013-10-20 15:40:00,
2013-10-20 07:55:00,49.3,30.0,29.40,SW,216,9.0,17.0,47,0.00,,,0.00,weatherlink.com 1.10,2013-10-20 15:55:00,
2013-10-20 08:10:00,49.2,29.0,29.41,SSW,207,6.0,14.0,46,0.00,,,0.00,weatherlink.com 1.10,2013-10-20 16:10:00,
2013-10-20 08:25:00,49.2,29.0,29.42,SSW,205,10.0,13.0,46,0.00,,,0.00,weatherlink.com 1.10,2013-10-20 16:25:00,
2013-10-20 08:40:00,49.2,29.0,29.42,SSW,200,8.0,17.0,46,0.00,,,0.00,weatherlink.com 1.10,2013-10-20 16:40:00,
2013-10-20 08:55:00,49.2,29.0,29.42,SSW,200,7.0,19.0,46,0.00,,,0.00,weatherlink.com 1.10,2013-10-20 16:55:00,
2013-10-20 09:10:00,48.8,29.0,29.43,SW,223,5.0,17.0,47,0.00,,,0.00,weatherlink.com 1.10,2013-10-20 17:10:00,
2013-10-20 09:25:00,48.9,28.0,29.43,SSW,205,10.0,17.0,45,0.00,,,0.00,weatherlink.com 1.10,2013-10-20 17:25:00,
2013-10-20 09:40:00,48.8,28.0,29.44,SW,218,5.0,15.0,45,0.00,,,0.00,weatherlink.com 1.10,2013-10-20 17:40:00,
2013-10-20 09:55:00,48.6,28.0,29.44,South,179,4.0,12.0,46,0.00,,,0.00,weatherlink.com 1.10,2013-10-20 17:55:00,
2013-10-20 10:10:00,48.6,28.0,29.45,SSW,193,7.0,12.0,46,0.00,,,0.00,weatherlink.com 1.10,2013-10-20 18:10:00,
2013-10-20 10:25:00,49.4,29.0,29.44,SW,226,9.0,13.0,45,0.00,,,0.00,weatherlink.com 1.10,2013-10-20 18:25:00,
2013-10-20 10:40:00,49.5,28.0,29.45,SSW,213,5.0,10.0,44,0.00,,,0.00,weatherlink.com 1.10,2013-10-20 18:40:00,
2013-10-20 10:55:00,49.9,29.0,29.45,South,190,5.0,14.0,44,0.00,,,0.00,weatherlink.com 1.10,2013-10-20 18:55:00,
2013-10-20 11:10:00,49.9,29.0,29.46,SW,220,10.0,12.0,44,0.00,,,0.00,weatherlink.com 1.10,2013-10-20 19:10:00,
2013-10-20 11:25:00,49.9,29.0,29.46,SSW,194,15.0,17.0,44,0.00,,,0.00,weatherlink.com 1.10,2013-10-20 19:25:00,
2013-10-20 11:40:00,49.7,28.0,29.46,SSW,206,11.0,17.0,44,0.00,,,0.00,weatherlink.com 1.10,2013-10-20 19:40:00,
2013-10-20 11:55:00,49.9,29.0,29.47,SSW,212,6.0,16.0,44,0.00,,,0.00,weatherlink.com 1.10,2013-10-20 19:55:00,
2013-10-20 12:10:00,49.9,29.0,29.47,South,187,6.0,12.0,45,0.00,,,0.00,weatherlink.com 1.10,2013-10-20 20:10:00,
2013-10-20 12:25:00,49.9,29.0,29.47,SSW,210,5.0,14.0,45,0.00,,,0.00,weatherlink.com 1.10,2013-10-20 20:25:00,
2013-10-20 12:40:00,49.9,29.0,29.47,SSW,202,7.0,14.0,45,0.00,,,0.00,weatherlink.com 1.10,2013-10-20 20:40:00,
2013-10-20 12:55:00,50.0,29.0,29.47,South,174,11.0,18.0,45,0.00,,,0.00,weatherlink.com 1.10,2013-10-20 20:55:00,
2013-10-20 13:10:00,50.1,29.0,29.48,SSW,201,12.0,18.0,45,0.00,,,0.00,weatherlink.com 1.10,2013-10-20 21:10:00,
2013-10-20 13:25:00,50.0,30.0,29.48,SSE,155,10.0,19.0,46,0.00,,,0.00,weatherlink.com 1.10,2013-10-20 21:25:00,
2013-10-20 13:40:00,50.1,30.0,29.48,WSW,256,4.0,17.0,47,0.00,,,0.00,weatherlink.com 1.10,2013-10-20 21:40:00,
2013-10-20 13:55:00,49.9,30.0,29.48,SSW,202,6.0,21.0,47,0.00,,,0.00,weatherlink.com 1.10,2013-10-20 21:55:00,
2013-10-20 14:10:00,50.3,31.0,29.49,SSW,211,11.0,14.0,48,0.00,,,0.00,weatherlink.com 1.10,2013-10-20 22:10:00,
2013-10-20 14:25:00,50.0,30.0,29.49,SSW,200,12.0,21.0,47,0.00,,,0.00,weatherlink.com 1.10,2013-10-20 22:25:00,
2013-10-20 14:40:00,49.8,31.0,29.49,SW,221,9.0,18.0,49,0.00,,,0.00,weatherlink.com 1.10,2013-10-20 22:40:00,
2013-10-20 14:55:00,49.9,32.0,29.49,SSW,200,10.0,20.0,50,0.00,,,0.00,weatherlink.com 1.10,2013-10-20 22:55:00,
2013-10-20 15:10:00,50.9,31.0,29.49,SSW,202,18.0,20.0,47,0.00,,,0.00,weatherlink.com 1.10,2013-10-20 23:10:00,
2013-10-20 15:25:00,50.9,31.0,29.49,SSW,202,9.0,17.0,46,0.00,,,0.00,weatherlink.com 1.10,2013-10-20 23:25:00,
2013-10-20 15:40:00,50.8,31.0,29.49,South,186,14.0,22.0,46,0.00,,,0.00,weatherlink.com 1.10,2013-10-20 23:40:00,
2013-10-20 15:55:00,51.3,31.0,29.49,SSW,212,7.0,22.0,46,0.00,,,0.00,weatherlink.com 1.10,2013-10-20 23:55:00,
2013-10-20 16:10:00,51.5,30.0,29.48,SW,222,17.0,19.0,44,0.00,,,0.00,weatherlink.com 1.10,2013-10-21 00:10:00,
2013-10-20 16:25:00,50.6,30.0,29.48,SSW,193,8.0,17.0,46,0.00,,,0.00,weatherlink.com 1.10,2013-10-21 00:25:00,
2013-10-20 16:40:00,49.9,30.0,29.48,SW,215,9.0,18.0,47,0.00,,,0.00,weatherlink.com 1.10,2013-10-21 00:40:00,
2013-10-20 16:55:00,49.7,31.0,29.48,SSW,198,11.0,20.0,48,0.00,,,0.00,weatherlink.com 1.10,2013-10-21 00:55:00,
2013-10-20 17:10:00,49.5,31.0,29.48,South,175,7.0,19.0,49,0.00,,,0.00,weatherlink.com 1.10,2013-10-21 01:10:00,
2013-10-20 17:25:00,49.2,31.0,29.49,SSW,210,5.0,17.0,50,0.00,,,0.00,weatherlink.com 1.10,2013-10-21 01:25:00,
2013-10-20 17:40:00,49.1,30.0,29.49,South,181,6.0,17.0,48,0.00,,,0.00,weatherlink.com 1.10,2013-10-21 01:40:00,
2013-10-20 17:55:00,48.9,30.0,29.49,SSW,206,4.0,12.0,48,0.00,,,0.00,weatherlink.com 1.10,2013-10-21 01:55:00,
2013-10-20 18:10:00,48.9,30.0,29.50,SSW,204,9.0,20.0,48,0.00,,,0.00,weatherlink.com 1.10,2013-10-21 02:10:00,
2013-10-20 18:25:00,48.8,30.0,29.50,SSW,193,6.0,18.0,48,0.00,,,0.00,weatherlink.com 1.10,2013-10-21 02:25:00,
2013-10-20 18:40:00,48.7,30.0,29.50,SSW,200,4.0,15.0,48,0.00,,,0.00,weatherlink.com 1.10,2013-10-21 02:40:00,
2013-10-20 18:55:00,48.5,30.0,29.51,SSW,205,4.0,11.0,49,0.00,,,0.00,weatherlink.com 1.10,2013-10-21 02:55:00,
2013-10-20 19:10:00,48.5,29.0,29.51,South,181,4.0,12.0,47,0.00,,,0.00,weatherlink.com 1.10,2013-10-21 03:10:00,
2013-10-20 19:26:00,48.2,29.0,29.51,SSE,161,6.0,9.0,47,0.00,,,0.00,weatherlink.com 1.10,2013-10-21 03:26:00,
2013-10-20 19:41:00,48.0,29.0,29.52,SSW,202,1.0,5.0,48,0.00,,,0.00,weatherlink.com 1.10,2013-10-21 03:41:00,
2013-10-20 19:56:00,47.7,29.0,29.52,SSW,197,5.0,11.0,48,0.00,,,0.00,weatherlink.com 1.10,2013-10-21 03:56:00,
2013-10-20 20:11:00,47.9,28.0,29.53,SSE,165,4.0,8.0,47,0.00,,,0.00,weatherlink.com 1.10,2013-10-21 04:11:00,
2013-10-20 20:26:00,48.3,28.0,29.53,SSE,160,7.0,11.0,46,0.00,,,0.00,weatherlink.com 1.10,2013-10-21 04:26:00,
2013-10-20 20:41:00,48.5,28.0,29.53,SSW,202,4.0,12.0,45,0.00,,,0.00,weatherlink.com 1.10,2013-10-21 04:41:00,
2013-10-20 20:56:00,48.5,27.0,29.53,SSW,210,1.0,9.0,44,0.00,,,0.00,weatherlink.com 1.10,2013-10-21 04:56:00,
2013-10-20 21:11:00,47.5,30.0,29.54,NNE,31,4.0,5.0,52,0.00,,,0.00,weatherlink.com 1.10,2013-10-21 05:11:00,
2013-10-20 21:26:00,45.2,33.0,29.54,NNE,33,3.0,4.0,62,0.00,,,0.00,weatherlink.com 1.10,2013-10-21 05:26:00,
2013-10-20 21:41:00,44.2,35.0,29.54,North,3,1.0,6.0,69,0.00,,,0.00,weatherlink.com 1.10,2013-10-21 05:41:00,
2013-10-20 21:56:00,43.6,35.0,29.54,NE,46,0.0,7.0,73,0.00,,,0.00,weatherlink.com 1.10,2013-10-21 05:56:00,
2013-10-20 22:11:00,43.6,36.0,29.54,North,9,3.0,6.0,74,0.00,,,0.00,weatherlink.com 1.10,2013-10-21 06:11:00,
2013-10-20 22:26:00,43.6,37.0,29.55,NE,36,2.0,7.0,76,0.00,,,0.00,weatherlink.com 1.10,2013-10-21 06:26:00,
2013-10-20 22:41:00,43.7,37.0,29.55,North,8,0.0,7.0,76,0.00,,,0.00,weatherlink.com 1.10,2013-10-21 06:41:00,
2013-10-20 22:56:00,43.6,37.0,29.55,NNE,29,2.0,3.0,78,0.00,,,0.00,weatherlink.com 1.10,2013-10-21 06:56:00,
2013-10-20 23:11:00,43.9,37.0,29.55,ENE,77,2.0,5.0,76,0.00,,,0.00,weatherlink.com 1.10,2013-10-21 07:11:00,
2013-10-20 23:26:00,43.4,37.0,29.56,East,100,0.0,4.0,78,0.00,,,0.00,weatherlink.com 1.10,2013-10-21 07:26:00,
2013-10-20 23:41:00,42.7,38.0,29.55,NE,42,2.0,6.0,82,0.00,,,0.00,weatherlink.com 1.10,2013-10-21 07:41:00,
2013-10-20 23:56:00,43.2,38.0,29.56,North,351,3.0,6.0,81,0.00,,,0.00,weatherlink.com 1.10,2013-10-21 07:56:00,